Regional Weather Roundup
Issued by NWS

Home | Current Version | Previous Version | Graphics & Text | Print | Product List | Glossary On
Versions: 1 2 3 4 5 6 7 8 9 10 11 12 13 14 15 16 17 18 19 20 21 22 23 24 25 26 27 28 29 30 31 32 33 34 35 36 37 38 39 40 41 42 43 44 45 46 47 48 49 50
000
ASUS43 KLMK 280110
RWRKY
KENTUCKY REGIONAL WEATHER ROUNDUP
NATIONAL WEATHER SERVICE LOUISVILLE KY
900 PM EDT TUE SEP 27 2016

NOTE "FAIR" INDICATES FEW OR NO CLOUDS BELOW 12,000 FEET
WITH NO SIGNIFICANT WEATHER AND/OR OBSTRUCTIONS TO VISIBILITY.

KYZ001>023-026-027-061>063-070>075-280200-
WESTERN AND SOUTH CENTRAL KENTUCKY

CITY           SKY/WX    TMP DP  RH WIND       PRES   REMARKS
PADUCAH        CLEAR     67  49  52 SW5       29.90S
HENDERSON      CLEAR     63  48  59 S6        29.87S
OWENSBORO      CLEAR    N/A N/A N/A SW8       29.89S
HOPKINSVILLE   CLEAR     65  49  56 SW5       29.92S
BOWLING GREEN  CLEAR     62  49  62 CALM      29.92S
GLASGOW        CLEAR     57  50  79 CALM      29.93S
$$

KYZ024-025-028>034-038-045-046-053-280200-
NORTH CENTRAL KENTUCKY

CITY           SKY/WX    TMP DP  RH WIND       PRES   REMARKS
LOUISVILLE/SDF CLEAR     68  47  46 S8        29.89R
LOUISVILLE/LOU CLEAR     68  47  46 S3        29.89S
FORT KNOX      CLEAR     61  49  65 SW3       29.89R
$$

KYZ035>037-039>044-047>052-055>060-089>105-280200-
NORTHEAST KENTUCKY

CITY           SKY/WX    TMP DP  RH WIND       PRES   REMARKS
LEXINGTON      CLEAR     63  42  46 S7        29.92R
COVINGTON      PTCLDY    61  48  62 S6        29.87R
FRANKFORT      CLEAR     61  47  59 S3        29.90R
$$

KYZ054-064>069-076>088-106>120-280200-
SOUTHEAST KENTUCKY

CITY           SKY/WX    TMP DP  RH WIND       PRES   REMARKS
JACKSON        CLEAR     65  41  41 W5        29.94R
LONDON         CLEAR     61  45  55 CALM      29.94R
SOMERSET       CLEAR     57  46  67 CALM      29.95R
MIDDLESBORO    CLEAR     59  49  69 CALM      29.95R
MONTICELLO     CLEAR     51  46  83 VRB5      29.96R
$$





USA.gov is the U.S. government's official web portal to all federal, state and local government web resources and services.